Regional Weather Roundup
Issued by NWS

Home | Current Version | Previous Version | Graphics & Text | Print | Product List | Glossary Off
Versions: 1 2 3 4 5 6 7 8 9 10 11 12 13 14 15 16 17 18 19 20 21 22 23 24 25 26 27 28 29 30 31 32 33 34 35 36 37 38 39 40 41 42 43 44 45 46 47 48 49 50

000
ASUS43 KMPX 220601
RWRMN
WEATHER ROUNDUP FOR MINNESOTA
NATIONAL WEATHER SERVICE TWIN CITIES/CHANHASSEN MN
100 AM CDT THU JUN 22 2017


NOTE: "FAIR" INDICATES FEW OR NO CLOUDS BELOW 12,000 FEET WITH NO
SIGNIFICANT WEATHER AND/OR OBSTRUCTIONS TO VISIBILITY. N/A MEANS
CURRENT SKY AND/OR WEATHER CONDITIONS ARE NOT AVAILABLE.

MNZ060>063-068>070-220700-
   Twin Cities Metro

CITY           SKY/WX    TMP DP  RH WIND       PRES   REMARKS
TWIN CITIES    CLOUDY    72  62  71 SE8       29.69F
6HR MIN TEMP:  72; 6HR MAX TEMP:  79;

ST PAUL        CLOUDY    70  64  81 SE7       29.69F
CRYSTAL        CLOUDY    71  60  68 SE7       29.67F
BLAINE         CLOUDY    72  63  73 SE9       29.67F
LAKEVILLE      CLOUDY    66  63  88 E5        29.71S
EDEN PRAIRIE   CLOUDY    72  62  71 SE7       29.69F
6HR MIN TEMP:  72; 6HR MAX TEMP:  79;

SOUTH ST PAUL  CLOUDY    71  61  71 SE5       29.70F
LAKE ELMO      FAIR      68  63  83 SE5       29.71F
$$
MNZ001>005-007-008-013>017-022>024-027-028-220700-
   Northwest Minnesota

CITY           SKY/WX    TMP DP  RH WIND       PRES   REMARKS
BEMIDJI        CLEAR     60  56  88 W7        29.69S
HALLOCK        CLEAR     59  46  63 W7        29.64F
ROSEAU         CLEAR     59  54  82 SW3       29.63F
WARROAD        CLEAR     57  55  94 W7        29.62F
CROOKSTON      CLEAR     57  52  82 W7        29.68F
FOSSTON        CLEAR     57  50  77 CALM      29.70F
DETROIT LAKES  CLEAR     64  57  77 NW7       29.73S
MOORHEAD       CLEAR     63  48  59 NW6       29.71F
PARK RAPIDS    CLEAR     64  57  78 NW8       29.70R
MAHNOMEN       FAIR      59  54  81 W5        29.71S
$$
MNZ006-009>011-018-025>026-220700-
   North Central Minnesota

CITY           SKY/WX    TMP DP  RH WIND       PRES   REMARKS
BAUDETTE       CLEAR     61  58  90 W10       29.61R
FLAG ISLAND    CLEAR     59  55  88 W9        29.59S
INTL FALLS     PTCLDY    59  56  89 S8        29.61F
6HR MIN TEMP:  58; 6HR MAX TEMP:  64; 6HR PCP: TRACE;

WASKISH        CLEAR     66  59  77 W13G20    29.65S
BIG FORK       PTCLDY    57  55  94 S3        29.66S
LONGVILLE      CLOUDY    70  63  78 W5        29.68S
GRAND RAPIDS   MOCLDY    59  57  93 S7        29.69F
CRANE LAKE     PTCLDY    55  54  94 S5        29.65S
ORR            MOCLDY    57  54  88 S6        29.62F
COOK           PTCLDY    59  55  88 S5        29.66F
WALKER         FAIR      65  57  75 NW7       29.69R
$$
MNZ012-019>021-037-220700-
   Northeast Minnesota

CITY           SKY/WX    TMP DP  RH WIND       PRES   REMARKS
DULUTH         CLOUDY    54  51  90 NE5       29.70S
6HR MIN TEMP:  53; 6HR MAX TEMP:  64; 6HR PCP:  0.01;

ELY            CLOUDY    54  52  94 S14G23    29.66F
HIBBING        CLOUDY    55  54  96 SE5       29.68F
EVELETH        MOCLDY    57  54  90 CALM      29.70F
DULUTH HARBOR  LGT RAIN  54  50  87 NE12      29.69F
TWO HARBORS    CLOUDY    57  52  82 NE5       29.67F
SILVER BAY     LGT RAIN  54  54 100 CALM      29.70F
GRAND MARAIS     N/A     56  53  90 NE5       29.72F
G MARAIS ARPRT RAIN      52  48  87 SE7       29.72F
$$
MNZ029>031-032-039>041-046>048-054>057-064-220700-
   West Central Minnesota

CITY           SKY/WX    TMP DP  RH WIND       PRES   REMARKS
FERGUS FALLS   CLEAR     68  57  68 NW8       29.68F
WHEATON        CLEAR     66  55  68 N6        29.72F
MORRIS         CLEAR     68  66  94 N5        29.68F
ALEXANDRIA     CLOUDY    69  67  93 CALM      29.72F
ELBOW LAKE     CLOUDY    69  66  89 N6        29.71F
WADENA         PTCLDY    64  64 100 W7        29.70S
GLENWOOD       CLOUDY    66  64  94 SW3       29.71R
APPLETON       PTCLDY    73  66  78 N7        29.68S
BENSON         PTCLDY    72  64  78 NW3       29.70R
ORTONVILLE     CLOUDY    72  63  73 N13       29.69F
MADISON        PTCLDY    75  68  78 N7        29.68F
$$
MNZ033>034-036-042>043-049>051-058-059-220700-
   Central Minnesota

CITY           SKY/WX    TMP DP  RH WIND       PRES   REMARKS
ST CLOUD       LGT RAIN  70  64  81 S7        29.70R
6HR MIN TEMP:  69; 6HR MAX TEMP:  80; 6HR PCP: TRACE;

SAUK CENTRE    FAIR      67  64  90 CALM      29.69F
PAYNESVILLE    CLOUDY    70  64  80 SE10      29.67F
AITKIN         CLOUDY    68  63  83 SW6       29.67S
PINE RIVER     MOCLDY    64  64 100 CALM      29.73S
BRAINERD       CLOUDY    68  64  87 SW9       29.69R
STAPLES        PTCLDY    66  64  94 SW6       29.70S
LONG PRAIRIE   MOCLDY    68  63  83 CALM      29.70F
LITTLE FALLS   CLOUDY    68  63  83 CALM      29.70R
LITCHFIELD     PTCLDY    72  64  78 CALM      29.71R
BUFFALO        CLOUDY    69  62  78 SE3       29.70R
MAPLE LAKE     MOCLDY    71  64  80 CALM      29.70S
HUTCHINSON     CLEAR     69  65  86 SE3       29.71R
$$
MNZ037-044-045-052-053-220700-
   East Central Minnesota

CITY           SKY/WX    TMP DP  RH WIND       PRES   REMARKS
MORA           PTCLDY    64  59  82 SW5       29.69R
CAMBRIDGE      CLOUDY    72  59  64 S9        29.65S
RUSH CITY      CLOUDY    68  59  73 S7        29.67S
MOOSE LAKE     PTCLDY    66  59  77 CALM      29.67F
HINCKLEY       FAIR      64  61  88 CALM      29.69R
CLOQUET        DRIZZLE   55  50  82 CALM      29.69F
MCGREGOR       CLOUDY    64  61  88 S5        29.68S
$$
MNZ071>073-080-081-089-090-097-098-220700-
   Southwest Minnesota

CITY           SKY/WX    TMP DP  RH WIND       PRES   REMARKS
MONTEVIDEO     CLEAR     72  66  83 S3        29.67S
GRANITE FALLS  PTCLDY    73  67  82 SE8       29.68F
CANBY          PTCLDY    73  67  83 N8        29.70R
MARSHALL       CLEAR     71  67  87 SE12      29.68F
REDWOOD FALLS  CLEAR     72  65  78 SE7       29.68S
OLIVIA         CLEAR     70  63  78 SE9       29.68S
PIPESTONE      CLEAR     72  68  88 E5        29.69F
WINDOM         CLOUDY    72  66  83 CALM      29.70R
WORTHINGTON    CLOUDY    72  70  93 N7        29.70R
JACKSON        CLOUDY    70  70 100 SE3       29.69S
TRACY          CLEAR     71  68  91 E3        29.70S
SLAYTON        HVY RAIN  69  64  83 CALM      29.72S
$$
MNZ065>067-074>077-082>085-091>093-220700-
   South Central Minnesota

CITY           SKY/WX    TMP DP  RH WIND       PRES   REMARKS
MANKATO        TSTM      70  66  87 SE12      29.70S
NEW ULM        CLOUDY    70  63  78 E7        29.70R
ST JAMES       CLOUDY    70  66  88 N3        29.68F
FAIRMONT       LGT RAIN  71  68  90 SE10      29.69F
GLENCOE        PTCLDY    71  65  82 SE5       29.70R
FARIBAULT      TSTM      70  64  83 N7        29.73R
OWATONNA       CLOUDY    72  66  83 S9        29.69S
WASECA         CLOUDY    70  64  83 SE3       29.70F
ALBERT LEA     CLOUDY    72  66  83 S5        29.70R
$$
MNZ078>079-086>088-094>096-220700-
   Southeast Minnesota

CITY           SKY/WX    TMP DP  RH WIND       PRES   REMARKS
ROCHESTER      CLOUDY    67  63  87 S12       29.70F
6HR MIN TEMP:  66; 6HR MAX TEMP:  73;

RED WING       CLOUDY    72  59  64 SE8       29.72R
STANTON        CLOUDY    70  65  83 CALM      29.72R
DODGE CENTER   CLOUDY    68  63  83 S8        29.71S
WINONA         CLOUDY    70  61  73 SE5       29.71F
AUSTIN         CLOUDY    72  66  83 S10       29.71S
PRESTON        CLOUDY    67  63  86 S9        29.73F
$$
ABBREVIATIONS USED IN REMARKS
   TC - TEMPERATURES IN CELSIUS
  WCI - WIND CHILL INDEX
   HX - HEAT INDEX
  VSB - VISIBILITY
$$




USA.gov is the U.S. government's official web portal to all federal, state and local government web resources and services.